| time (UTC) | temp F | wind direction | speed MPH | gust MPH | rain 1hr in | rain 24hr in | rain mn in | humidity % | barometer mb |
| 20260906124600 | 74 | 0 | 0.0 | 0.0 | 0.00 | 0.01 | 0.00 | 97 | 1015.3 |
| 20260906123103 | 74 | 0 | 0.0 | 0.0 | 0.00 | 0.01 | 0.00 | 97 | 1015.3 |
| 20260906121605 | 74 | 0 | 0.0 | 0.0 | 0.00 | 0.01 | 0.00 | 97 | 1015.1 |
| 20260906114611 | 73 | 0 | 0.0 | 0.0 | 0.00 | 0.01 | 0.00 | 97 | 1015.1 |
| 20260906113059 | 74 | 0 | 0.0 | 0.0 | 0.00 | 0.01 | 0.00 | 96 | 1015.1 |
| 20260906111600 | 74 | 0 | 0.0 | 0.0 | 0.00 | 0.01 | 0.00 | 96 | 1015.0 |
| 20260906104623 | 74 | 0 | 0.0 | 0.0 | 0.00 | 0.01 | 0.00 | 95 | 1014.9 |
| 20260906103101 | 74 | 0 | 0.0 | 2.0 | 0.00 | 0.01 | 0.00 | 95 | 1014.7 |
| 20260906101603 | 75 | 0 | 0.0 | 4.0 | 0.00 | 0.01 | 0.00 | 95 | 1014.3 |
| 20260906100058 | 74 | 0 | 0.0 | 1.0 | 0.00 | 0.01 | 0.00 | 94 | 1014.0 |
| 20260906094601 | 75 | 0 | 0.0 | 2.0 | 0.00 | 0.01 | 0.00 | 93 | 1013.6 |
| 20260906093124 | 75 | 164 | 0.0 | 5.0 | 0.00 | 0.01 | 0.00 | 93 | 1013.5 |
| 20260906091600 | 75 | 0 | 0.0 | 4.0 | 0.00 | 0.01 | 0.00 | 91 | 1013.2 |
| 20260906084606 | 78 | 0 | 0.0 | 6.0 | 0.00 | 0.01 | 0.00 | 84 | 1014.2 |
| 20260906083103 | 78 | 348 | 2.0 | 8.0 | 0.00 | 0.01 | 0.00 | 82 | 1014.7 |
| 20260906081602 | 79 | 284 | 1.0 | 10.0 | 0.00 | 0.01 | 0.00 | 84 | 1015.0 |
| 20260906080109 | 77 | 0 | 0.0 | 5.0 | 0.00 | 0.01 | 0.00 | 94 | 1014.9 |
| 20260906074602 | 76 | 0 | 0.0 | 0.0 | 0.00 | 0.01 | 0.00 | 94 | 1014.6 |
| 20260906073101 | 77 | 0 | 0.0 | 0.0 | 0.00 | 0.01 | 0.00 | 94 | 1014.8 |
| 20260906071602 | 77 | 0 | 0.0 | 1.0 | 0.00 | 0.01 | 0.00 | 93 | 1015.0 |
| 20260906070105 | 77 | 0 | 0.0 | 4.0 | 0.00 | 0.01 | 0.00 | 92 | 1015.0 |
| 20260906064603 | 77 | 352 | 3.0 | 12.0 | 0.00 | 0.01 | 0.00 | 96 | 1015.0 |
| 20260906063102 | 76 | 0 | 0.0 | 0.0 | 0.00 | 0.01 | 0.00 | 97 | 1014.5 |
| 20260906061605 | 76 | 0 | 0.0 | 0.0 | 0.00 | 0.01 | 0.00 | 97 | 1014.3 |
| 20260906054608 | 76 | 0 | 0.0 | 0.0 | 0.00 | 0.01 | 0.00 | 97 | 1014.2 |
| 20260906053057 | 76 | 0 | 0.0 | 0.0 | 0.00 | 0.01 | 0.00 | 97 | 1014.2 |
| 20260906051600 | 76 | 0 | 0.0 | 0.0 | 0.00 | 0.01 | 0.00 | 97 | 1014.5 |
| 20260906050121 | 76 | 0 | 0.0 | 0.0 | 0.00 | 0.01 | 0.00 | 96 | 1014.3 |
| 20260906044603 | 76 | 0 | 0.0 | 0.0 | 0.00 | 0.01 | 0.01 | 96 | 1014.5 |
| 20260906043059 | 76 | 0 | 0.0 | 0.0 | 0.00 | 0.01 | 0.01 | 96 | 1014.6 |
| 20260906041600 | 76 | 0 | 0.0 | 0.0 | 0.00 | 0.01 | 0.01 | 96 | 1014.7 |
| 20260906040133 | 75 | 0 | 0.0 | 0.0 | 0.00 | 0.01 | 0.01 | 95 | 1015.0 |
| 20260906034601 | 75 | 0 | 0.0 | 0.0 | 0.00 | 0.01 | 0.01 | 95 | 1014.9 |
| 20260906033111 | 75 | 0 | 0.0 | 0.0 | 0.00 | 0.01 | 0.01 | 94 | 1014.7 |
| 20260906031602 | 76 | 0 | 0.0 | 0.0 | 0.00 | 0.01 | 0.01 | 94 | 1014.7 |
| 20260906030100 | 76 | 0 | 0.0 | 0.0 | 0.00 | 0.01 | 0.01 | 94 | 1014.6 |
| 20260906024616 | 76 | 0 | 0.0 | 0.0 | 0.00 | 0.01 | 0.01 | 93 | 1014.5 |
| 20260906023104 | 76 | 0 | 0.0 | 0.0 | 0.00 | 0.01 | 0.01 | 92 | 1014.2 |
| 20260906021605 | 76 | 0 | 0.0 | 0.0 | 0.00 | 0.01 | 0.01 | 91 | 1014.1 |
| 20260906020123 | 76 | 0 | 0.0 | 0.0 | 0.00 | 0.01 | 0.01 | 91 | 1014.2 |
| 20260906014611 | 76 | 0 | 0.0 | 0.0 | 0.00 | 0.01 | 0.01 | 90 | 1014.2 |
| 20260906013103 | 77 | 0 | 0.0 | 0.0 | 0.00 | 0.01 | 0.01 | 90 | 1013.9 |
| 20260906011605 | 78 | 0 | 0.0 | 0.0 | 0.00 | 0.01 | 0.01 | 90 | 1013.5 |
| 20260906010106 | 78 | 0 | 0.0 | 0.0 | 0.00 | 0.01 | 0.01 | 88 | 1013.1 |
| 20260906004602 | 79 | 0 | 0.0 | 0.0 | 0.00 | 0.01 | 0.01 | 87 | 1013.1 |
| 20260906003101 | 79 | 0 | 0.0 | 0.0 | 0.00 | 0.01 | 0.01 | 85 | 1013.0 |
| 20260906001559 | 80 | 0 | 0.0 | 0.0 | 0.00 | 0.01 | 0.01 | 85 | 1012.9 |
| 20260906000100 | 80 | 0 | 0.0 | 0.0 | 0.00 | 0.01 | 0.01 | 87 | 1013.3 |
| 20260905234612 | 80 | 0 | 0.0 | 1.0 | 0.01 | 0.01 | 0.01 | 88 | 1013.5 |
| 20260905233101 | 81 | 0 | 0.0 | 0.0 | 0.01 | 0.01 | 0.01 | 89 | 1013.4 |
| 20260905231559 | 81 | 0 | 0.0 | 1.0 | 0.01 | 0.01 | 0.01 | 87 | 1013.5 |
| 20260905230125 | 81 | 0 | 0.0 | 0.0 | 0.01 | 0.01 | 0.01 | 86 | 1013.3 |
| 20260905224602 | 80 | 0 | 0.0 | 0.0 | 0.00 | 0.00 | 0.00 | 87 | 1013.1 |
| 20260905223100 | 81 | 0 | 0.0 | 3.0 | 0.00 | 0.00 | 0.00 | 84 | 1013.2 |
| 20260905221600 | 83 | 0 | 0.0 | 4.0 | 0.00 | 0.00 | 0.00 | 75 | 1013.5 |
| 20260905220110 | 87 | 193 | 6.0 | 16.0 | 0.00 | 0.00 | 0.00 | 65 | 1013.8 |
| 20260905214559 | 89 | 0 | 1.0 | 9.0 | 0.00 | 0.00 | 0.00 | 60 | 1013.1 |
| 20260905213059 | 91 | 360 | 6.0 | 16.0 | 0.00 | 0.00 | 0.00 | 56 | 1013.4 |
| 20260905211605 | 99 | 180 | 1.0 | 3.0 | 0.00 | 0.00 | 0.00 | 52 | 1013.1 |
| 20260905204559 | 98 | 174 | 3.0 | 6.0 | 0.00 | 0.00 | 0.00 | 53 | 1012.9 |
| 20260905203105 | 99 | 0 | 0.0 | 3.0 | 0.00 | 0.00 | 0.00 | 51 | 1013.1 |
| 20260905201606 | 100 | 180 | 0.0 | 5.0 | 0.00 | 0.00 | 0.00 | 51 | 1013.3 |
| 20260905200108 | 99 | 190 | 1.0 | 5.0 | 0.00 | 0.00 | 0.00 | 54 | 1013.5 |
| 20260905194605 | 99 | 0 | 1.0 | 4.0 | 0.00 | 0.00 | 0.00 | 51 | 1013.7 |
| 20260905193114 | 98 | 0 | 1.0 | 4.0 | 0.00 | 0.00 | 0.00 | 52 | 1014.0 |
| 20260905191602 | 99 | 0 | 0.0 | 4.0 | 0.00 | 0.00 | 0.00 | 48 | 1014.1 |
| 20260905184605 | 98 | 229 | 1.0 | 4.0 | 0.00 | 0.00 | 0.00 | 56 | 1014.5 |
| 20260905183104 | 98 | 269 | 1.0 | 3.0 | 0.00 | 0.00 | 0.00 | 52 | 1014.6 |
| 20260905181602 | 98 | 269 | 1.0 | 4.0 | 0.00 | 0.00 | 0.00 | 53 | 1014.8 |
| 20260905174608 | 96 | 269 | 1.0 | 4.0 | 0.00 | 0.00 | 0.00 | 62 | 1015.0 |
| 20260905173102 | 96 | 269 | 0.0 | 3.0 | 0.00 | 0.00 | 0.00 | 59 | 1015.2 |
| 20260905171606 | 94 | 269 | 1.0 | 4.0 | 0.00 | 0.00 | 0.00 | 68 | 1015.5 |
| 20260905164556 | 93 | 305 | 1.0 | 3.0 | 0.00 | 0.00 | 0.00 | 72 | 1015.8 |
| 20260905163059 | 93 | 305 | 1.0 | 3.0 | 0.00 | 0.00 | 0.00 | 73 | 1015.9 |
| 20260905161601 | 92 | 0 | 1.0 | 4.0 | 0.00 | 0.00 | 0.00 | 74 | 1016.2 |
| 20260905160100 | 92 | 309 | 1.0 | 4.0 | 0.00 | 0.00 | 0.00 | 73 | 1016.4 |
| 20260905154607 | 90 | 311 | 1.0 | 3.0 | 0.00 | 0.00 | 0.00 | 75 | 1016.5 |
| 20260905153057 | 88 | 312 | 1.0 | 5.0 | 0.00 | 0.00 | 0.00 | 81 | 1016.6 |
| 20260905151603 | 86 | 345 | 2.0 | 5.0 | 0.00 | 0.00 | 0.00 | 81 | 1016.6 |
| 20260905150111 | 86 | 336 | 2.0 | 4.0 | 0.00 | 0.00 | 0.00 | 81 | 1016.6 |
| 20260905144558 | 86 | 344 | 2.0 | 4.0 | 0.00 | 0.00 | 0.00 | 82 | 1016.5 |
| 20260905143056 | 85 | 0 | 0.0 | 4.0 | 0.00 | 0.00 | 0.00 | 84 | 1016.5 |
| 20260905141600 | 84 | 346 | 1.0 | 4.0 | 0.00 | 0.00 | 0.00 | 87 | 1016.8 |
| 20260905134601 | 82 | 342 | 2.0 | 5.0 | 0.00 | 0.00 | 0.00 | 90 | 1016.9 |
| 20260905133104 | 81 | 0 | 0.0 | 3.0 | 0.00 | 0.00 | 0.00 | 93 | 1017.0 |
| 20260905131559 | 79 | 0 | 0.0 | 3.0 | 0.00 | 0.00 | 0.00 | 99 | 1017.1 |